Change the Weather History Date:

Friday, September 14, 2012

  Actual Average (KFWN) Record (KFWN)
Temperature  
Mean Temperature 66 °F -  
Max Temperature 79 °F 76 °F 88 °F (1957)
Min Temperature 52 °F 48 °F 34 °F (1967)
Growing Degree Days 16 (Base 50)    
Moisture  
Dew Point 56 °F    
Average Humidity 78    
Maximum Humidity 100    
Minimum Humidity 42    
Precipitation  
Precipitation 0.00 in - - ()
Sea Level Pressure  
Sea Level Pressure 30.19 in    
Wind  
Wind Speed 1 mph (SW)    
Max Wind Speed 8 mph    
Max Gust Speed -    
Averages and records for this station are not official NWS values.
T = Trace of Precipitation, MM = Missing Value Source: NWS Daily Summary

Daily Weather History Graph

Daily Weather History Graph

Search for Another Location

Airport or City:

Trip Planner

Search our weather history database for the weather conditions in past years. The results will help you decide how hot, cold, wet, or windy it might be!

Date:

Astronomy

Sep. 14, 2012 Rise Set
Actual Time 6:38 AM EDT 7:08 PM EDT
Civil Twilight 6:11 AM EDT 7:36 PM EDT
Nautical Twilight 5:38 AM EDT 8:09 PM EDT
Astronomical Twilight 5:05 AM EDT 8:42 PM EDT
Moon 5:00 AM EDT (9/14) 6:04 PM EDT (9/14)
Length of Visible Light 13h 25m
Length of Day
12h 30m
Waning Crescent, 3% of the Moon is Illuminated
Sep 14
Waning Crescent
Sep 15
New
Sep 22
First Quarter
Sep 29
Full
Oct 8
Last Quarter

Hourly Weather History & Observations

Time (EDT) Temp. Dew Point Humidity Pressure Visibility Wind Dir Wind Speed Gust Speed Precip Events Conditions
12:54 AM 57.0 °F 55.9 °F 96% 30.29 in - Calm Calm - N/A   Unknown
1:54 AM 55.9 °F 54.0 °F 93% 30.29 in - Calm Calm - N/A   Unknown
2:54 AM 55.0 °F 54.0 °F 96% 30.27 in - Calm Calm - N/A   Unknown
3:54 AM 54.0 °F 52.0 °F 93% 30.27 in - Calm Calm - N/A   Unknown
4:54 AM 53.1 °F 52.0 °F 96% 30.27 in - Calm Calm - N/A   Unknown
5:54 AM 53.1 °F 52.0 °F 96% 30.26 in - Calm Calm - N/A   Unknown
6:54 AM 52.0 °F 51.1 °F 97% 30.27 in - Calm Calm - N/A   Unknown
7:54 AM 54.0 °F 54.0 °F 100% 30.26 in - Calm Calm - N/A   Unknown
8:54 AM 61.0 °F 59.0 °F 93% 30.25 in - Calm Calm - N/A   Unknown
9:54 AM 66.9 °F 59.0 °F 76% 30.24 in - Variable 3.5 mph - N/A   Unknown
10:54 AM 72.0 °F 55.9 °F 57% 30.23 in - SW 8.1 mph - N/A   Unknown
11:54 AM 75.0 °F 55.9 °F 51% 30.20 in - SW 4.6 mph - N/A   Unknown
12:54 PM 77.0 °F 54.0 °F 45% 30.19 in - SW 8.1 mph - N/A   Unknown
1:54 PM 79.0 °F 55.9 °F 45% 30.17 in - SW 6.9 mph - N/A   Unknown
2:54 PM 79.0 °F 54.0 °F 42% 30.15 in - SSW 6.9 mph - N/A   Unknown
3:54 PM 78.1 °F 55.9 °F 46% 30.14 in - SW 4.6 mph - N/A   Unknown
4:54 PM 78.1 °F 57.0 °F 48% 30.12 in - Calm Calm - N/A   Unknown
5:54 PM 75.0 °F 57.9 °F 55% 30.12 in - Calm Calm - N/A   Unknown
6:54 PM 68.0 °F 62.1 °F 81% 30.12 in - Calm Calm - N/A   Unknown
7:54 PM 64.0 °F 60.1 °F 87% 30.13 in - Calm Calm - N/A   Unknown
8:54 PM 62.1 °F 60.1 °F 93% 30.11 in - Calm Calm - N/A   Unknown
9:54 PM 61.0 °F 59.0 °F 93% 30.10 in - Calm Calm - N/A   Unknown
10:54 PM 60.1 °F 57.9 °F 93% 30.09 in - Calm Calm - N/A   Unknown
11:54 PM 60.1 °F 57.9 °F 93% 30.09 in - Calm Calm - N/A   Unknown